Bainbridge, GA

11:44 PM EDT on May 22, 2017 (GMT -0400)
Decatur County Industrial

Weather History for KBGE - November, 2012

Change the Weather History Date:

Monday, November 19, 2012

  Actual Average (KTLH) Record (KTLH)
Temperature  
Mean Temperature 58 °F -  
Max Temperature 71 °F 73 °F 84 °F (1985)
Min Temperature 44 °F 48 °F 22 °F (2014)
Degree Days  
Heating Degree Days 8    
Growing Degree Days 8 (Base 50)    
Moisture  
Dew Point 50 °F    
Average Humidity 72    
Maximum Humidity 100    
Minimum Humidity 53    
Precipitation  
Precipitation 0.00 in - - ()
Sea Level Pressure  
Sea Level Pressure 30.21 in    
Wind  
Wind Speed 4 mph (NNE)    
Max Wind Speed 10 mph    
Max Gust Speed -    
Visibility 10 miles    
Events      
Averages and records for this station are not official NWS values.
T = Trace of Precipitation, MM = Missing Value Source: NWS Daily Summary

Daily Weather History Graph

Daily Weather History Graph

Search for Another Location

Airport or City:

Trip Planner

Search our weather history database for the weather conditions in past years. The results will help you decide how hot, cold, wet, or windy it might be!

Date:

Astronomy

Nov. 19, 2012 Rise Set
Actual Time 7:09 AM EST 5:38 PM EST
Civil Twilight 6:43 AM EST 6:04 PM EST
Nautical Twilight 6:14 AM EST 6:33 PM EST
Astronomical Twilight 5:45 AM EST 7:02 PM EST
Moon 12:20 PM EST (11/19) 11:54 PM EST (11/19)
Length of Visible Light 11h 21m
Length of Day
10h 29m
Waxing Crescent, 40% of the Moon is Illuminated
Nov 19
Waxing Crescent
Nov 20
First Quarter
Nov 28
Full
Dec 6
Last Quarter
Dec 13
New

Hourly Weather History & Observations

Time (EST) Temp. Dew Point Humidity Pressure Visibility Wind Dir Wind Speed Gust Speed Precip Events Conditions
12:15 AM 57.2 °F 50.0 °F 77% 30.27 in 10.0 mi ENE 6.9 mph - N/A   Clear
12:35 AM 53.6 °F 46.4 °F 77% 30.27 in 10.0 mi NE 5.8 mph - N/A   Clear
12:55 AM 53.6 °F 46.4 °F 77% 30.27 in 10.0 mi NNE 4.6 mph - N/A   Clear
1:15 AM 53.6 °F 48.2 °F 82% 30.27 in 10.0 mi NNE 4.6 mph - N/A   Clear
1:35 AM 53.6 °F 46.4 °F 77% 30.27 in 10.0 mi NNE 3.5 mph - N/A   Clear
1:55 AM 53.6 °F 46.4 °F 77% 30.27 in 10.0 mi NNE 4.6 mph - N/A   Clear
2:15 AM 53.6 °F 46.4 °F 77% 30.26 in 10.0 mi NNE 3.5 mph - N/A   Clear
2:35 AM 53.6 °F 46.4 °F 77% 30.26 in 10.0 mi NNE 3.5 mph - N/A   Clear
2:55 AM 51.8 °F 46.4 °F 82% 30.25 in 10.0 mi NE 4.6 mph - N/A   Clear
3:15 AM 51.8 °F 46.4 °F 82% 30.25 in 10.0 mi NE 6.9 mph - N/A   Clear
3:35 AM 51.8 °F 46.4 °F 82% 30.25 in 10.0 mi NE 4.6 mph - N/A   Clear
3:55 AM 51.8 °F 46.4 °F 82% 30.25 in 10.0 mi NNE 3.5 mph - N/A   Clear
4:15 AM 51.8 °F 46.4 °F 82% 30.25 in 10.0 mi Calm Calm - N/A   Clear
5:15 AM 50.0 °F 44.6 °F 82% 30.25 in 10.0 mi Calm Calm - N/A   Clear
5:55 AM 46.4 °F 44.6 °F 93% 30.25 in 10.0 mi Calm Calm - N/A   Clear
6:15 AM 46.4 °F 44.6 °F 93% 30.25 in 10.0 mi Calm Calm - N/A   Clear
6:35 AM 44.6 °F 42.8 °F 93% 30.26 in 10.0 mi Calm Calm - N/A   Clear
6:55 AM 44.6 °F 42.8 °F 93% 30.26 in 10.0 mi Calm Calm - N/A   Clear
7:15 AM 44.6 °F 42.8 °F 93% 30.27 in 10.0 mi Calm Calm - N/A   Clear
7:35 AM 44.6 °F 42.8 °F 93% 30.28 in 10.0 mi Calm Calm - N/A   Clear
7:55 AM 44.6 °F 44.6 °F 100% 30.28 in 10.0 mi Calm Calm - N/A   Clear
8:15 AM 51.8 °F 46.4 °F 82% 30.28 in 10.0 mi NNE 3.5 mph - N/A   Clear
8:35 AM 51.8 °F 46.4 °F 82% 30.27 in 10.0 mi NE 6.9 mph - N/A   Clear
8:55 AM 53.6 °F 46.4 °F 77% 30.26 in 10.0 mi NE 6.9 mph - N/A   Clear
9:15 AM 57.2 °F 46.4 °F 67% 30.27 in 10.0 mi ENE 9.2 mph - N/A   Clear
9:35 AM 57.2 °F 46.4 °F 67% 30.26 in 10.0 mi NE 10.4 mph - N/A   Clear
9:55 AM 59.0 °F 48.2 °F 67% 30.26 in 10.0 mi NE 10.4 mph - N/A   Clear
10:15 AM 59.0 °F 46.4 °F 63% 30.27 in 10.0 mi NE 5.8 mph - N/A   Clear
10:55 AM 62.6 °F 50.0 °F 63% 30.25 in 10.0 mi Calm Calm - N/A   Clear
11:15 AM 62.6 °F 50.0 °F 63% 30.25 in 10.0 mi NNE 5.8 mph - N/A   Clear
11:35 AM 64.4 °F 51.8 °F 64% 30.24 in 10.0 mi NNE 6.9 mph - N/A   Clear
11:55 AM 64.4 °F 50.0 °F 59% 30.23 in 10.0 mi North 9.2 mph - N/A   Clear
12:15 PM 64.4 °F 51.8 °F 64% 30.23 in 10.0 mi North 5.8 mph - N/A   Clear
12:35 PM 68.0 °F 51.8 °F 56% 30.21 in 10.0 mi NNE 5.8 mph - N/A   Clear
12:55 PM 68.0 °F 51.8 °F 56% 30.20 in 10.0 mi Calm Calm - N/A   Clear
1:15 PM 68.0 °F 51.8 °F 56% 30.19 in 10.0 mi NNW 6.9 mph - N/A   Clear
1:35 PM 68.0 °F 51.8 °F 56% 30.18 in 10.0 mi North 5.8 mph - N/A   Clear
1:55 PM 69.8 °F 53.6 °F 56% 30.18 in 10.0 mi NNW 6.9 mph - N/A   Clear
2:15 PM 69.8 °F 53.6 °F 56% 30.17 in 10.0 mi Calm Calm - N/A   Clear
2:35 PM 69.8 °F 53.6 °F 56% 30.17 in 10.0 mi North 5.8 mph - N/A   Clear
2:55 PM 71.6 °F 53.6 °F 53% 30.16 in 10.0 mi North 5.8 mph - N/A   Clear
3:15 PM 69.8 °F 53.6 °F 56% 30.15 in 10.0 mi NNW 8.1 mph - N/A   Clear
3:35 PM 69.8 °F 53.6 °F 56% 30.15 in 10.0 mi North 5.8 mph - N/A   Clear
3:55 PM 69.8 °F 53.6 °F 56% 30.16 in 10.0 mi North 6.9 mph - N/A   Clear
4:15 PM 71.6 °F 53.6 °F 53% 30.16 in 10.0 mi NNE 8.1 mph - N/A   Clear
4:35 PM 69.8 °F 53.6 °F 56% 30.15 in 10.0 mi North 5.8 mph - N/A   Clear
4:55 PM 69.8 °F 53.6 °F 56% 30.15 in 10.0 mi NNE 9.2 mph - N/A   Clear
5:15 PM 68.0 °F 51.8 °F 56% 30.15 in 10.0 mi NNE 6.9 mph - N/A   Clear
5:35 PM 64.4 °F 51.8 °F 64% 30.16 in 10.0 mi NNE 3.5 mph - N/A   Clear
5:55 PM 64.4 °F 51.8 °F 64% 30.17 in 10.0 mi North 4.6 mph - N/A   Mostly Cloudy
6:15 PM 64.4 °F 51.8 °F 64% 30.17 in 10.0 mi NNE 3.5 mph - N/A   Overcast
6:35 PM 64.4 °F 51.8 °F 64% 30.17 in 10.0 mi North 3.5 mph - N/A   Overcast
6:55 PM 62.6 °F 51.8 °F 68% 30.17 in 10.0 mi NNW 4.6 mph - N/A   Overcast
7:15 PM 64.4 °F 51.8 °F 64% 30.17 in 10.0 mi NNW 3.5 mph - N/A   Overcast
7:35 PM 64.4 °F 51.8 °F 64% 30.17 in 10.0 mi North 3.5 mph - N/A   Overcast
7:55 PM 64.4 °F 51.8 °F 64% 30.16 in 10.0 mi North 3.5 mph - N/A   Overcast
8:15 PM 62.6 °F 51.8 °F 68% 30.17 in 10.0 mi North 3.5 mph - N/A   Overcast
8:35 PM 62.6 °F 51.8 °F 68% 30.17 in 10.0 mi NNW 3.5 mph - N/A   Mostly Cloudy
9:15 PM 57.2 °F 51.8 °F 82% 30.18 in 10.0 mi NW 3.5 mph - N/A   Clear
9:35 PM 59.0 °F 51.8 °F 77% 30.17 in 10.0 mi Calm Calm - N/A   Clear
9:55 PM 59.0 °F 51.8 °F 77% 30.17 in 10.0 mi Calm Calm - N/A   Clear
10:15 PM 55.4 °F 51.8 °F 88% 30.18 in 10.0 mi Calm Calm - N/A   Scattered Clouds
10:35 PM 53.6 °F 51.8 °F 94% 30.18 in 10.0 mi Calm Calm - N/A   Mostly Cloudy
10:55 PM 55.4 °F 51.8 °F 88% 30.17 in 10.0 mi Calm Calm - N/A   Mostly Cloudy
11:15 PM 57.2 °F 53.6 °F 88% 30.17 in 10.0 mi Calm Calm - N/A   Overcast
11:35 PM 59.0 °F 53.6 °F 82% 30.17 in 10.0 mi Calm Calm - N/A   Overcast